N2QDK-2 Weather Reports


Display with metric or nautical units.
time (UTC)temp
F
wind
direction
speed
MPH
gust
MPH
rain 1hr
in
rain 24hr
in
rain mn
in
humidity
%
barometer
mb
20180224215926 37 68 2.0 5.0 0.00 0.02 0.00 77 1021.6
20180224212910 37 33 2.0 6.0 0.00 0.03 0.00 76 1022.2
20180224205923 38 35 0.0 5.0 0.00 0.05 0.00 74 1022.6
20180224202923 38 309 0.0 5.0 0.00 0.06 0.00 74 1022.9
20180224195951 38 15 0.0 5.0 0.00 0.06 0.00 75 1023.0
20180224192921 38 27 5.0 9.0 0.00 0.06 0.00 75 1023.2
20180224185905 37 35 2.0 6.0 0.00 0.06 0.00 73 1022.8
20180224182849 37 276 2.0 8.0 0.00 0.06 0.00 76 1023.1
20180224175948 38 42 3.0 6.0 0.00 0.06 0.00 73 1023.4
20180224172947 38 27 5.0 8.0 0.00 0.06 0.00 71 1023.7
20180224165946 38 15 0.0 9.0 0.00 0.06 0.00 76 1023.7
20180224162945 38 46 2.0 9.0 0.00 0.06 0.00 77 1024.4
20180224155945 38 16 3.0 11.0 0.00 0.06 0.00 77 1024.4
20180224152943 38 76 2.0 12.0 0.00 0.06 0.00 73 1024.7
20180224145943 39 286 0.0 14.0 0.00 0.06 0.00 79 1024.5
20180224142941 40 304 0.0 11.0 0.00 0.06 0.00 78 1024.2
20180224135941 40 22 0.0 9.0 0.00 0.06 0.00 76 1023.8
20180224132910 40 254 2.0 12.0 0.00 0.06 0.00 76 1023.9
20180224125909 40 296 0.0 11.0 0.00 0.06 0.00 79 1023.5
20180224122939 39 283 3.0 5.0 0.00 0.06 0.00 80 1023.9
20180224115937 39 272 0.0 6.0 0.00 0.06 0.00 81 1023.8
20180224112937 39 264 0.0 6.0 0.00 0.06 0.00 82 1023.5
20180224105936 39 183 0.0 14.0 0.00 0.06 0.00 83 1023.0
20180224102934 39 276 5.0 14.0 0.00 0.06 0.00 83 1023.1
20180224095933 40 273 3.0 18.0 0.00 0.06 0.00 83 1022.9
20180224092934 43 295 5.0 23.0 0.00 0.06 0.00 81 1022.5
20180224085932 44 270 9.0 17.0 0.00 0.06 0.00 82 1021.9
20180224082916 44 271 2.0 14.0 0.00 0.06 0.00 83 1021.3
20180224075930 45 266 6.0 23.0 0.00 0.06 0.00 85 1021.1
20180224072930 46 264 3.0 12.0 0.00 0.06 0.00 86 1021.0
20180224065928 46 233 0.0 12.0 0.00 0.06 0.00 89 1021.1
20180224062928 46 312 3.0 11.0 0.00 0.06 0.00 90 1020.9
20180224055926 46 288 0.0 11.0 0.00 0.06 0.00 89 1020.8
20180224052926 46 263 5.0 11.0 0.00 0.06 0.00 88 1020.6
20180224045925 46 267 9.0 20.0 0.00 0.06 0.00 88 1020.3
20180224042924 46 286 5.0 18.0 0.00 0.06 0.06 89 1020.3
20180224035923 47 279 2.0 17.0 0.00 0.06 0.06 93 1020.0
20180224032923 47 301 3.0 15.0 0.00 0.06 0.06 94 1019.6
20180224025852 48 262 3.0 15.0 0.00 0.06 0.06 94 1019.1
20180224022921 50 222 2.0 12.0 0.00 0.06 0.06 94 1018.6
20180224015950 49 281 2.0 5.0 0.00 0.06 0.06 93 1018.2
20180224012919 49 214 2.0 9.0 0.00 0.06 0.06 93 1018.1
20180224005948 50 230 3.0 9.0 0.00 0.06 0.06 92 1017.8
20180224002947 49 294 3.0 11.0 0.00 0.06 0.06 92 1017.8
20180223235946 49 230 6.0 11.0 0.00 0.06 0.06 93 1017.5
20180223232946 50 225 5.0 14.0 0.01 0.06 0.06 89 1017.1
20180223225944 49 209 5.0 12.0 0.02 0.06 0.06 89 1016.8
20180223222943 48 192 3.0 12.0 0.02 0.05 0.05 91 1016.9